This is the latest recevied weather packets stored in our database for station/object W5DRO-13. If no packets are shown the sender has not sent any weather packets the latest 10 day(s).
| Time | Temp. | Humidity | Pressure | Rain* | Wind** | Luminosity | Snow |
|---|---|---|---|---|---|---|---|
| 1778000310 | 13.89° C | 81% | 1007.4 hPa | 0 mm | - | - | - |
| 1778000006 | 13.89° C | 82% | 1006.9 hPa | 0 mm | - | - | - |
| 1777999702 | 14.44° C | 81% | 1006.9 hPa | 0 mm | - | - | - |
| 1777999399 | 15° C | 81% | 1006.8 hPa | 0 mm | - | - | - |
| 1777999097 | 15° C | 82% | 1006.8 hPa | 0 mm | - | - | - |
| 1777998796 | 15° C | 81% | 1006.5 hPa | 0 mm | - | - | - |
| 1777998494 | 15.56° C | 80% | 1006 hPa | 0 mm | - | - | - |
| 1777998190 | 16.11° C | 80% | 1005.7 hPa | 0 mm | - | - | - |
| 1777997887 | 16.67° C | 80% | 1005.6 hPa | 0 mm | - | - | - |
| 1777997584 | 16.67° C | 81% | 1005.4 hPa | 0 mm | - | - | - |
| 1777997281 | 16.67° C | 81% | 1005.5 hPa | 0 mm | - | - | - |
| 1777996979 | 17.22° C | 82% | 1005.3 hPa | 0 mm | - | - | - |
| 1777996675 | 17.22° C | 81% | 1005.3 hPa | 0 mm | - | - | - |
| 1777996372 | 17.78° C | 80% | 1005.4 hPa | 0 mm | - | - | - |
| 1777996068 | 18.33° C | 82% | 1005.2 hPa | 0 mm | - | - | - |
| 1777995765 | 18.33° C | 81% | 1004.9 hPa | 0 mm | - | - | - |
| 1777995461 | 19.44° C | 80% | 1004.6 hPa | 0 mm | - | - | - |
| 1777995158 | 20° C | 81% | 1004.4 hPa | 0 mm | - | - | - |
| 1777994856 | 20.56° C | 82% | 1004.3 hPa | 0 mm | - | - | - |
| 1777994552 | 20.56° C | 82% | 1004.3 hPa | 0 mm | - | - | - |
| 1777994252 | 21.11° C | 82% | 1004.1 hPa | 0 mm | - | - | - |
| 1777993950 | 21.11° C | 82% | 1004.1 hPa | 0 mm | - | - | - |
| 1777993646 | 21.67° C | 82% | 1004.3 hPa | 0 mm | - | - | - |
| 1777993344 | 21.67° C | 82% | 1004 hPa | 0 mm | - | - | - |
| 1777993044 | 21.67° C | 81% | 1003.9 hPa | 0 mm | - | - | - |
* Rain latest hour (hover to see other rain measurements)
** Current wind speed in m/s (hover to see current wind gust speed)